Charleston, SC

2:20 AM EDT on May 25, 2017 (GMT -0400)
Charleston Executive

Weather History for KJZI - March, 2013

Change the Weather History Date:

Tuesday, March 12, 2013

  Actual Average (KCHS) Record (KCHS)
Temperature  
Mean Temperature 62 °F -  
Max Temperature 69 °F 71 °F 89 °F (1967)
Min Temperature 55 °F 47 °F 27 °F (1969)
Degree Days  
Heating Degree Days 3    
Growing Degree Days 12 (Base 50)    
Moisture  
Dew Point 57 °F    
Average Humidity 81    
Maximum Humidity 94    
Minimum Humidity 52    
Precipitation  
Precipitation 0.02 in - - ()
Sea Level Pressure  
Sea Level Pressure 29.88 in    
Wind  
Wind Speed 10 mph (SSW)    
Max Wind Speed 18 mph    
Max Gust Speed 26 mph    
Visibility 7 miles    
Events Rain    
Averages and records for this station are not official NWS values.
T = Trace of Precipitation, MM = Missing Value Source: NWS Daily Summary

Daily Weather History Graph

Daily Weather History Graph

Search for Another Location

Airport or City:

Trip Planner

Search our weather history database for the weather conditions in past years. The results will help you decide how hot, cold, wet, or windy it might be!

Date:

Astronomy

Mar. 12, 2013 Rise Set
Actual Time 7:33 AM EDT 7:25 PM EDT
Civil Twilight 7:09 AM EDT 7:50 PM EDT
Nautical Twilight 6:40 AM EDT 8:19 PM EDT
Astronomical Twilight 6:12 AM EDT 8:47 PM EDT
Moon 7:44 AM EDT (3/12) 8:32 PM EDT (3/12)
Length of Visible Light 12h 41m
Length of Day
11h 52m
New Moon, 1% of the Moon is Illuminated
Mar 12
New Moon
Mar 19
First Quarter
Mar 27
Full
Apr 3
Last Quarter
Apr 10
New

Hourly Weather History & Observations

Time (EDT) Temp. Dew Point Humidity Pressure Visibility Wind Dir Wind Speed Gust Speed Precip Events Conditions
12:15 AM 62.6 °F 57.2 °F 82% 29.94 in 7.0 mi South 9.2 mph - 0.00 in   Partly Cloudy
12:35 AM 62.6 °F 57.2 °F 82% 29.94 in 7.0 mi South 11.5 mph - 0.00 in   Mostly Cloudy
1:15 AM 64.4 °F 59.0 °F 83% 29.91 in 9.0 mi South 15.0 mph 19.6 mph 0.00 in   Clear
1:35 AM 62.6 °F 59.0 °F 88% 29.90 in 7.0 mi South 12.7 mph - 0.00 in   Clear
1:55 AM 62.6 °F 59.0 °F 88% 29.90 in 7.0 mi South 13.8 mph - 0.00 in   Clear
2:15 AM 64.4 °F 60.8 °F 88% 29.89 in 7.0 mi South 12.7 mph - 0.00 in   Clear
2:35 AM 62.6 °F 59.0 °F 88% 29.89 in 6.0 mi South 12.7 mph - 0.00 in   Clear
2:55 AM 64.4 °F 60.8 °F 88% 29.88 in 6.0 mi South 9.2 mph - 0.00 in   Partly Cloudy
3:15 AM 62.6 °F 60.8 °F 94% 29.86 in 5.0 mi SSE 6.9 mph - 0.00 in   Mostly Cloudy
3:35 AM 62.6 °F 60.8 °F 94% 29.85 in 5.0 mi South 8.1 mph - 0.00 in   Mostly Cloudy
3:55 AM 62.6 °F 60.8 °F 94% 29.87 in 5.0 mi SSW 8.1 mph - 0.00 in   Mostly Cloudy
4:15 AM 64.4 °F 60.8 °F 88% 29.87 in 5.0 mi SSW 10.4 mph - 0.00 in   Mostly Cloudy
4:35 AM 64.4 °F 60.8 °F 88% 29.87 in 5.0 mi SSW 10.4 mph - 0.00 in   Mostly Cloudy
4:55 AM 64.4 °F 60.8 °F 88% 29.87 in 3.0 mi SSW 9.2 mph - 0.00 in   Overcast
5:15 AM 64.4 °F 60.8 °F 88% 29.87 in 5.0 mi SSW 8.1 mph - 0.00 in   Overcast
5:35 AM 64.4 °F 60.8 °F 88% 29.87 in 5.0 mi SSW 8.1 mph - 0.00 in   Mostly Cloudy
5:55 AM 64.4 °F 60.8 °F 88% 29.86 in 5.0 mi SSW 9.2 mph - 0.00 in Rain Light Rain
6:15 AM 64.4 °F 62.6 °F 94% 29.87 in 4.0 mi SSW 10.4 mph - 0.00 in   Mostly Cloudy
6:35 AM 64.4 °F 60.8 °F 88% 29.87 in 5.0 mi SSW 11.5 mph 16.1 mph 0.00 in   Mostly Cloudy
7:15 AM 64.4 °F 60.8 °F 88% 29.87 in 5.0 mi SSW 13.8 mph 18.4 mph 0.00 in   Scattered Clouds
7:35 AM 64.4 °F 60.8 °F 88% 29.87 in 5.0 mi SSW 15.0 mph 21.9 mph 0.01 in   Mostly Cloudy
7:55 AM 62.6 °F 60.8 °F 94% 29.87 in 5.0 mi SSW 18.4 mph 23.0 mph 0.01 in Rain Light Rain
8:15 AM 62.6 °F 60.8 °F 94% 29.87 in 5.0 mi SSW 15.0 mph 21.9 mph 0.00 in   Mostly Cloudy
8:35 AM 64.4 °F 60.8 °F 88% 29.87 in 5.0 mi SW 13.8 mph 20.7 mph 0.00 in   Mostly Cloudy
8:55 AM 62.6 °F 60.8 °F 94% 29.88 in 4.0 mi SSW 13.8 mph 24.2 mph 0.00 in   Mostly Cloudy
9:35 AM 64.4 °F 60.8 °F 88% 29.88 in 5.0 mi SSW 15.0 mph 26.5 mph 0.00 in   Overcast
9:55 AM 64.4 °F 60.8 °F 88% 29.88 in 5.0 mi SW 11.5 mph 25.3 mph 0.00 in   Overcast
10:15 AM 64.4 °F 60.8 °F 88% 29.89 in 5.0 mi SW 11.5 mph 25.3 mph 0.00 in   Mostly Cloudy
10:35 AM 64.4 °F 60.8 °F 88% 29.89 in 5.0 mi SW 17.3 mph 24.2 mph 0.00 in   Haze
10:55 AM 64.4 °F 60.8 °F 88% 29.89 in 6.0 mi SW 11.5 mph 21.9 mph 0.00 in   Haze
11:15 AM 64.4 °F 60.8 °F 88% 29.90 in 6.0 mi SW 11.5 mph 19.6 mph 0.00 in   Mostly Cloudy
11:35 AM 66.2 °F 60.8 °F 83% 29.90 in 6.0 mi SW 13.8 mph 19.6 mph 0.00 in   Haze
11:55 AM 64.4 °F 60.8 °F 88% 29.90 in 9.0 mi SW 16.1 mph 25.3 mph 0.00 in   Overcast
12:15 PM 64.4 °F 59.0 °F 83% 29.91 in 9.0 mi SW 13.8 mph 23.0 mph 0.00 in   Overcast
12:35 PM 64.4 °F 60.8 °F 88% 29.91 in 5.0 mi SSW 16.1 mph 21.9 mph 0.00 in   Overcast
12:55 PM 62.6 °F 60.8 °F 94% 29.90 in 0.8 mi SSW 15.0 mph 20.7 mph 0.00 in   Overcast
1:15 PM 62.6 °F 60.8 °F 94% 29.89 in 1.0 mi SSW 13.8 mph 21.9 mph 0.01 in   Light Drizzle
1:35 PM 62.6 °F 60.8 °F 94% 29.88 in 2.0 mi SSW 11.5 mph 21.9 mph 0.01 in   Overcast
1:55 PM 62.6 °F 60.8 °F 94% 29.88 in 1.0 mi SSW 11.5 mph 19.6 mph 0.01 in   Overcast
2:15 PM 62.6 °F 60.8 °F 94% 29.87 in 3.0 mi SSW 12.7 mph 19.6 mph 0.00 in   Overcast
2:35 PM 62.6 °F 60.8 °F 94% 29.86 in 1.0 mi SW 10.4 mph 17.3 mph 0.00 in   Overcast
2:55 PM 64.4 °F 62.6 °F 94% 29.85 in 5.0 mi SSW 10.4 mph 17.3 mph 0.00 in   Overcast
3:15 PM 64.4 °F 62.6 °F 94% 29.84 in 7.0 mi SW 11.5 mph - 0.00 in   Overcast
3:35 PM 66.2 °F 62.6 °F 88% 29.84 in 8.0 mi SSW 6.9 mph - 0.00 in   Overcast
3:55 PM 66.2 °F 62.6 °F 88% 29.84 in 8.0 mi South 8.1 mph - 0.00 in   Overcast
4:15 PM 66.2 °F 62.6 °F 88% 29.83 in 7.0 mi SSW 6.9 mph - 0.00 in   Mostly Cloudy
4:35 PM 66.2 °F 62.6 °F 88% 29.83 in 8.0 mi SSW 6.9 mph - 0.00 in   Mostly Cloudy
5:15 PM 66.2 °F 60.8 °F 83% 29.83 in 9.0 mi South 6.9 mph - 0.00 in   Clear
5:35 PM 69.8 °F 59.0 °F 68% 29.82 in 10.0 mi WSW 8.1 mph - 0.00 in   Clear
5:55 PM 69.8 °F 57.2 °F 64% 29.83 in 10.0 mi West 11.5 mph - 0.00 in   Clear
6:15 PM 69.8 °F 53.6 °F 56% 29.84 in 10.0 mi West 6.9 mph - 0.00 in   Clear
6:35 PM 69.8 °F 53.6 °F 56% 29.84 in 10.0 mi WSW 5.8 mph - 0.00 in   Clear
6:55 PM 68.0 °F 51.8 °F 56% 29.85 in 10.0 mi Calm Calm - 0.00 in   Clear
7:15 PM 66.2 °F 51.8 °F 60% 29.86 in 10.0 mi Calm Calm - 0.00 in   Clear
7:35 PM 66.2 °F 53.6 °F 64% 29.87 in 10.0 mi Calm Calm - 0.00 in   Clear
7:55 PM 62.6 °F 53.6 °F 72% 29.87 in 10.0 mi Calm Calm - 0.00 in   Clear
8:15 PM 62.6 °F 50.0 °F 63% 29.88 in 10.0 mi West 5.8 mph - 0.00 in   Clear
8:35 PM 62.6 °F 46.4 °F 55% 29.89 in 10.0 mi Calm Calm - 0.00 in   Clear
9:15 PM 60.8 °F 44.6 °F 55% 29.91 in 10.0 mi Calm Calm - 0.00 in   Clear
9:35 PM 62.6 °F 44.6 °F 52% 29.92 in 10.0 mi Calm Calm - 0.00 in   Clear
9:55 PM 60.8 °F 44.6 °F 55% 29.92 in 10.0 mi West 4.6 mph - 0.00 in   Clear
10:15 PM 59.0 °F 44.6 °F 59% 29.93 in 10.0 mi West 4.6 mph - 0.00 in   Clear
10:35 PM 57.2 °F 44.6 °F 63% 29.94 in 10.0 mi Calm Calm - 0.00 in   Clear
10:55 PM 55.4 °F 44.6 °F 67% 29.94 in 10.0 mi WNW 6.9 mph - 0.00 in   Clear
11:15 PM 55.4 °F 44.6 °F 67% 29.95 in 10.0 mi Calm Calm - 0.00 in   Clear
11:35 PM 55.4 °F 44.6 °F 67% 29.96 in 10.0 mi West 6.9 mph - 0.00 in   Clear
11:55 PM 55.4 °F 44.6 °F 67% 29.96 in 10.0 mi West 8.1 mph - 0.00 in   Clear